Ohio State University, OH

2:20 AM EDT on August 22, 2017 (GMT -0400)
Ohio State University

Weather History for KOSU - July, 2013

Change the Weather History Date:

Saturday, July 6, 2013

  Actual Average Record
Temperature  
Mean Temperature 76 °F -  
Max Temperature 82 °F 81 °F 99 °F (2012)
Min Temperature 70 °F 60 °F 52 °F (2001)
Cooling Degree Days 12    
Growing Degree Days 26 (Base 50)    
Moisture  
Dew Point 70 °F    
Average Humidity 87    
Maximum Humidity 96    
Minimum Humidity 62    
Precipitation  
Precipitation 0.69 in - - ()
Sea Level Pressure  
Sea Level Pressure 30.10 in    
Wind  
Wind Speed 7 mph (South)    
Max Wind Speed 17 mph    
Max Gust Speed 20 mph    
Visibility 9 miles    
Events Rain , Thunderstorm    
Averages and records for this station are not official NWS values.
T = Trace of Precipitation, MM = Missing Value Source: NWS Daily Summary

Daily Weather History Graph

Daily Weather History Graph

Search for Another Location

Airport or City:

Trip Planner

Search our weather history database for the weather conditions in past years. The results will help you decide how hot, cold, wet, or windy it might be!

Date:

Astronomy

Jul. 06, 2013 Rise Set
Actual Time 6:09 AM EDT 9:04 PM EDT
Civil Twilight 5:37 AM EDT 9:36 PM EDT
Nautical Twilight 4:56 AM EDT 10:17 PM EDT
Astronomical Twilight 4:08 AM EDT 11:04 PM EDT
Moon 4:54 AM EDT (7/6) 7:44 PM EDT (7/6)
Length of Visible Light 15h 59m
Length of Day
14h 54m
Waning Crescent, 2% of the Moon is Illuminated
Jul 6
Waning Crescent
Jul 8
New
Jul 15
First Quarter
Jul 22
Full
Jul 29
Last Quarter

Hourly Weather History & Observations

Time (EDT) Temp. Heat Index Dew Point Humidity Pressure Visibility Wind Dir Wind Speed Gust Speed Precip Events Conditions
12:53 AM 71.1 °F - 69.1 °F 93% 30.14 in 10.0 mi South 3.5 mph - N/A   Clear
1:53 AM 72.0 °F - 70.0 °F 93% 30.14 in 10.0 mi South 3.5 mph - 0.00 in Rain Light Rain
2:53 AM 71.1 °F - 70.0 °F 96% 30.14 in 10.0 mi SSW 4.6 mph - 0.00 in Rain Light Rain
3:53 AM 71.1 °F - 69.1 °F 93% 30.13 in 10.0 mi SSW 3.5 mph - 0.00 in   Scattered Clouds
4:50 AM 71.6 °F - 69.8 °F 94% 30.14 in 10.0 mi South 4.6 mph - 0.00 in   Partly Cloudy
4:53 AM 71.1 °F - 69.1 °F 93% 30.13 in 10.0 mi South 4.6 mph - 0.00 in   Partly Cloudy
5:34 AM 71.6 °F - 69.8 °F 94% 30.14 in 9.0 mi South 5.8 mph - 0.01 in   Mostly Cloudy
5:53 AM 71.1 °F - 69.1 °F 93% 30.13 in 8.0 mi South 3.5 mph - 0.01 in   Mostly Cloudy
6:06 AM 71.6 °F - 69.8 °F 94% 30.15 in 9.0 mi South 4.6 mph - N/A   Mostly Cloudy
6:53 AM 71.1 °F - 70.0 °F 96% 30.14 in 6.0 mi SSE 4.6 mph - 0.00 in Rain Light Rain
7:53 AM 71.1 °F - 70.0 °F 96% 30.15 in 5.0 mi South 5.8 mph - 0.00 in Rain Light Rain
8:53 AM 72.0 °F - 70.0 °F 93% 30.15 in 6.0 mi South 4.6 mph - 0.02 in Rain Light Rain
9:53 AM 73.0 °F - 71.1 °F 93% 30.14 in 9.0 mi SE 4.6 mph - 0.00 in   Overcast
10:38 AM 73.4 °F - 71.6 °F 94% 30.15 in 10.0 mi SE 6.9 mph - N/A   Overcast
10:53 AM 75.0 °F - 70.0 °F 84% 30.13 in 10.0 mi SE 6.9 mph - N/A   Mostly Cloudy
11:21 AM 75.2 °F - 69.8 °F 83% 30.14 in 10.0 mi SE 10.4 mph 16.1 mph N/A   Mostly Cloudy
11:53 AM 77.0 °F - 70.0 °F 79% 30.12 in 10.0 mi SE 8.1 mph - N/A   Mostly Cloudy
12:27 PM 80.6 °F 83.9 °F 69.8 °F 70% 30.12 in 10.0 mi SE 11.5 mph - N/A   Mostly Cloudy
12:53 PM 80.1 °F 82.7 °F 68.0 °F 67% 30.09 in 10.0 mi SE 13.8 mph - N/A   Mostly Cloudy
1:53 PM 82.0 °F 84.9 °F 68.0 °F 62% 30.06 in 10.0 mi SE 17.3 mph - N/A   Mostly Cloudy
2:53 PM 81.0 °F 84.1 °F 69.1 °F 67% 30.04 in 10.0 mi South 12.7 mph - 0.00 in Rain Light Rain
3:31 PM 73.4 °F - 71.6 °F 94% 30.06 in 0.8 mi WSW 10.4 mph - 0.30 in Rain Heavy Rain
3:50 PM 73.4 °F - 71.6 °F 94% 30.05 in 10.0 mi West 8.1 mph - 0.53 in Rain Rain
3:53 PM 73.9 °F - 72.0 °F 93% 30.04 in 10.0 mi WSW 8.1 mph - 0.53 in Rain Light Rain
4:01 PM 77.0 °F - 71.6 °F 83% 30.05 in 10.0 mi WSW 9.2 mph - N/A   Overcast
4:53 PM 78.1 °F - 72.0 °F 81% 30.02 in 10.0 mi SSW 11.5 mph 18.4 mph 0.01 in Rain Light Rain
5:11 PM 75.2 °F - 71.6 °F 89% 30.05 in 8.0 mi SW 9.2 mph - 0.01 in Rain , Thunderstorm Light Thunderstorms and Rain
5:14 PM 75.2 °F - 71.6 °F 89% 30.05 in 8.0 mi SW 11.5 mph 17.3 mph 0.06 in Rain , Thunderstorm Thunderstorms and Rain
5:21 PM 75.2 °F - 71.6 °F 89% 30.05 in 8.0 mi SW 10.4 mph 17.3 mph 0.07 in Rain , Thunderstorm Light Thunderstorms and Rain
5:41 PM 73.4 °F - 71.6 °F 94% 30.05 in 8.0 mi SW 9.2 mph - 0.12 in Rain Light Rain
5:53 PM 75.0 °F - 71.1 °F 87% 30.03 in 10.0 mi SSW 9.2 mph - 0.12 in   Mostly Cloudy
6:53 PM 77.0 °F - 70.0 °F 79% 30.03 in 10.0 mi SSW 12.7 mph 19.6 mph N/A   Mostly Cloudy
7:53 PM 75.9 °F - 68.0 °F 76% 30.05 in 10.0 mi SW 13.8 mph 17.3 mph N/A   Mostly Cloudy
8:53 PM 73.9 °F - 66.9 °F 79% 30.06 in 10.0 mi SW 8.1 mph - N/A   Scattered Clouds
9:53 PM 72.0 °F - 66.0 °F 81% 30.09 in 10.0 mi WSW 9.2 mph - N/A   Scattered Clouds
10:53 PM 71.1 °F - 66.0 °F 84% 30.10 in 10.0 mi SW 5.8 mph - N/A   Clear
11:53 PM 70.0 °F - 66.0 °F 87% 30.10 in 10.0 mi SSW 4.6 mph - N/A   Clear